This is the latest recevied weather packets stored in our database for station/object N9GKE-1. If no packets are shown the sender has not sent any weather packets the latest 10 day(s).
| Time | Temp. | Humidity | Pressure | Rain* | Wind** | Luminosity | Snow |
|---|---|---|---|---|---|---|---|
| 1778255949 | 15.56° C | 65% | 1011.3 hPa | 0 mm | - | - | - |
| 1778255495 | 15° C | 67% | 1011.4 hPa | 0 mm | - | - | - |
| 1778255350 | 15° C | 68% | 1011.4 hPa | 0 mm | - | - | - |
| 1778254895 | 14.44° C | 66% | 1011.5 hPa | 0 mm | - | - | - |
| 1778254750 | 14.44° C | 67% | 1011.6 hPa | 0 mm | - | - | - |
| 1778254294 | 14.44° C | 67% | 1011.7 hPa | 0 mm | - | - | - |
| 1778254150 | 14.44° C | 67% | 1011.8 hPa | 0 mm | - | - | - |
| 1778253695 | 13.89° C | 67% | 1011.7 hPa | 0 mm | - | - | - |
| 1778253550 | 13.89° C | 67% | 1011.7 hPa | 0 mm | - | - | - |
| 1778253094 | 13.89° C | 68% | 1011.9 hPa | 0 mm | - | - | - |
| 1778252950 | 13.89° C | 67% | 1011.9 hPa | 0 mm | - | - | - |
| 1778252495 | 13.89° C | 67% | 1011.8 hPa | 0 mm | - | - | - |
| 1778252349 | 13.89° C | 66% | 1011.9 hPa | 0 mm | - | - | - |
| 1778251896 | 14.44° C | 64% | 1012 hPa | 0 mm | - | - | - |
| 1778251750 | 14.44° C | 64% | 1011.9 hPa | 0 mm | - | - | - |
| 1778251294 | 14.44° C | 65% | 1011.9 hPa | 0 mm | - | - | - |
| 1778251150 | 14.44° C | 64% | 1011.9 hPa | 0 mm | - | - | - |
| 1778250695 | 15° C | 64% | 1011.9 hPa | 0 mm | - | - | - |
| 1778250551 | 15° C | 63% | 1011.9 hPa | 0 mm | - | - | - |
| 1778250094 | 14.44° C | 66% | 1012 hPa | 0 mm | - | - | - |
| 1778249951 | 14.44° C | 65% | 1012 hPa | 0 mm | - | - | - |
| 1778249494 | 13.89° C | 67% | 1012.2 hPa | 0 mm | - | - | - |
| 1778249351 | 13.89° C | 69% | 1012.2 hPa | 0 mm | - | - | - |
| 1778248894 | 13.33° C | 69% | 1012.2 hPa | 0 mm | - | - | - |
| 1778248749 | 13.33° C | 70% | 1012.1 hPa | 0 mm | - | - | - |
* Rain latest hour (hover to see other rain measurements)
** Current wind speed in m/s (hover to see current wind gust speed)